Location: Zwardon
(49.5170°N, 18.9830°E)
Time: 10:22:09
(UTC+01:00)

X-37B - Pass Details

Date: 10 December 2022
Orbit: 277 x 277 km, 45.0° (Epoch: 01 November)

Event Time Altitude Azimuth Distance (km) Brightness Sun altitude
Rises 16:59:39 0° 222° (SW) 1,906 5.4 -11.5°
Reaches altitude 10° 17:02:05 10° 196° (SSW) 1,096 3.4 -11.9°
Maximum altitude 17:03:32 14° 159° (SSE) 899 2.4 -12.1°
Enters shadow 17:04:40 11° 129° (SE) 1,027 2.4 -12.3°
